Wetbulb
47.45 40.72 35.78 37.40 38.75 38.99 37.81 34.88 34.30 36.70 41.23 37.78 37.37 37.34 39.66 41.94 42.32 43.23 43.61 42.16 45.56 47.52 48.78 49.39 49.58 50.42 50.92 51.73 52.96 55.66 55.86 57.69 61.29 65.97 65.31 64.84 63.84 65.09 63.60 65.02 65.15 63.36 59.91 56.93
40.62 36.63 41.28 42.23 41.46 39.73 37.91 34.44 33.71 37.96 40.33 37.78 36.17 36.17 39.81 41.61 41.83 43.16 43.44 42.53 44.12 46.65 46.88 47.50 48.63 49.02 50.03 51.15 50.99 52.78 55.03 57.09 59.49 62.88 66.12 65.24 64.05 60.64 61.88 63.30 64.46 63.18 57.61 53.75
35.46 38.10 42.49 39.95 38.74 37.19 34.69 32.49 33.05 33.48 37.16 36.68 34.49 32.90 35.90 40.43 41.95 43.61 44.85 45.32 44.91 45.24 44.66 45.52 45.84 46.91 47.86 48.99 50.55 52.35 53.11 55.15 56.15 56.93 58.57 57.02 56.15 55.30 55.07 53.71 55.45 54.61 53.65 51.98
38.63 41.68 39.88 37.74 36.99 37.00 31.88 37.56 37.30 35.71 31.95 26.54 33.80 24.15 30.84 36.81 38.45 39.75 40.53 42.03 44.25 44.86 43.91 45.36 46.33 45.65 46.09 47.22 49.68 51.63 53.28 54.30 55.85 57.34 58.43 59.43 59.65 58.80 54.62 52.00 50.33 49.44 50.30 51.28
35.20 37.60 37.70 35.50 37.00 39.06 34.34 38.86 35.68 34.53 29.76 27.08 28.67 24.84 29.06 34.43 35.47 37.62 36.67 39.06 40.91 42.97 45.04 45.80 44.95 46.43 46.59 46.87 47.47 49.93 51.69 53.71 55.15 58.00 59.39 59.67 58.54 52.31 50.60 49.26 47.77 48.44 48.31 49.21
38.08 42.38 39.63 38.08 39.71 39.46 39.65 35.86 34.59 32.73 29.43 20.93 26.73 26.54 26.06 31.60 35.48 35.19 37.16 39.87 40.13 41.54 41.63 42.93 44.20 45.49 45.36 45.28 45.68 48.56 50.80 52.21 53.49 57.89 59.16 58.87 53.56 50.04 49.23 47.09 46.73 46.22 47.37 47.17
35.67 36.60 39.10 40.74 35.67 37.75 35.98 29.78 17.18 24.49 23.29 18.74 30.31 26.70 27.96 35.59 39.20 39.35 39.12 39.03 40.59 40.88 40.80 41.86 44.36 45.18 45.30 45.62 46.41 46.49 48.46 51.19 52.99 56.90 58.46 55.21 53.07 51.45 49.73 47.46 46.26 45.77 43.72 43.35
25.17 24.00 35.09 38.73 35.75 32.68 32.93 30.26 19.19 14.46 16.07 22.43 30.11 24.46 29.92 37.55 40.52 40.22 41.14 39.83 40.43 39.69 40.73 41.08 44.79 44.69 44.49 45.18 46.00 46.37 46.92 50.09 54.05 57.20 56.11 52.55 50.17 49.75 48.21 47.33 45.28 46.31 44.23 44.03
27.29 28.56 38.97 39.05 39.31 37.62 32.92 27.77 32.90 23.50 23.86 17.29 23.75 27.94 34.01 37.52 37.37 37.65 39.32 39.88 39.70 40.62 40.67 42.36 43.80 45.05 45.45 45.78 45.97 46.23 46.83 51.14 55.64 56.06 51.06 48.39 48.23 47.47 46.30 45.42 44.44 45.12 43.94 42.96
36.34 28.80 37.62 39.12 40.98 40.55 34.88 36.35 24.48 20.49 10.04 13.16 21.74 23.64 28.05 33.32 35.33 37.43 37.42 37.99 39.59 41.30 41.95 42.86 44.47 45.38 46.17 46.23 45.90 46.38 47.42 52.42 55.17 54.65 48.88 46.59 46.31 45.98 44.99 43.64 41.67 42.48 41.95 41.67
38.16 31.83 32.24 37.38 33.86 32.05 33.67 32.16 31.11 27.27 22.92 15.24 16.31 23.05 33.24 34.38 35.71 35.25 37.34 40.13 40.61 41.13 41.52 42.28 44.60 45.52 46.03 46.17 46.44 46.59 49.92 52.97 52.83 49.79 46.60 45.59 43.52 43.56 42.70 42.40 41.60 41.75 41.08 40.94
38.75 34.50 26.98 27.99 35.32 37.81 35.34 32.16 30.79 17.86 16.42 19.51 23.28 24.38 37.56 38.36 36.84 38.60 40.92 43.11 43.53 43.62 43.86 41.58 44.14 44.91 45.14 45.70 47.01 47.71 51.04 50.51 45.88 43.29 43.38 41.61 41.62 40.79 41.92 40.44 41.12 40.89 40.04 40.27
37.27 32.55 25.55 29.27 33.52 36.79 31.77 35.14 33.30 30.49 26.95 17.90 19.02 23.54 37.42 36.68 39.12 41.23 42.20 42.61 43.45 45.17 42.64 43.11 43.61 44.37 45.42 48.20 49.03 48.63 44.39 41.91 41.28 41.09 40.76 40.11 39.54 39.93 39.39 40.55 40.06 40.02 39.25 39.27
41.46 33.98 23.97 21.78 27.12 31.85 26.94 31.08 31.73 31.79 23.70 25.09 24.53 28.54 34.61 36.95 39.00 41.23 42.31 40.66 40.80 42.84 45.11 43.34 43.85 44.03 46.08 46.07 43.73 42.08 40.50 40.40 38.64 38.91 39.08 38.68 38.57 39.01 39.37 39.47 39.47 39.34 38.86 37.95
37.42 25.63 29.40 31.53 33.29 33.52 31.89 30.70 31.81 26.18 30.32 27.63 30.19 30.96 34.76 38.72 40.61 42.78 44.17 42.08 44.15 44.57 44.64 45.54 44.62 43.54 44.43 41.49 41.23 40.27 39.96 39.46 39.53 39.06 39.27 38.68 39.86 39.57 38.85 38.35 38.29 37.40 37.27 35.93
36.45 26.25 31.89 25.97 32.74 33.41 30.56 32.87 33.02 33.33 33.25 33.25 33.46 33.24 40.84 43.35 43.56 43.48 42.16 43.17 43.37 44.10 44.28 44.44 43.03 41.55 39.59 39.42 39.66 39.29 40.23 40.13 40.13 37.92 37.63 38.81 38.02 37.71 37.39 36.55 36.17 35.21 34.31 33.84
35.32 31.18 28.67 23.54 32.12 31.92 26.60 32.71 33.64 33.65 36.02 36.86 33.89 38.88 43.49 42.90 42.68 41.16 41.84 42.51 42.49 42.99 44.40 42.98 36.41 35.87 36.13 37.67 38.31 37.68 38.66 39.12 37.99 37.39 36.97 36.64 36.55 35.73 35.24 35.07 34.44 33.42 32.80 32.61
35.63 33.43 30.41 24.28 28.44 23.26 33.55 38.96 39.67 36.75 38.96 41.48 41.80 42.61 42.98 43.59 42.29 41.62 39.67 40.51 39.29 38.95 40.70 37.15 35.57 35.24 35.61 36.19 37.03 37.67 37.53 37.09 36.43 35.68 35.51 35.64 34.86 34.23 34.27 33.82 32.94 32.44 32.30 31.24
39.03 34.87 32.30 27.03 27.33 29.43 36.14 38.73 37.00 35.48 36.65 42.98 41.64 42.37 43.94 42.18 43.13 40.02 37.71 36.63 35.26 35.22 35.10 34.90 35.31 35.18 35.69 36.00 36.37 36.00 35.09 35.16 34.63 34.06 34.15 33.68 34.17 33.51 33.07 32.11 31.57 31.53 31.39 31.28
38.79 38.32 32.96 28.92 22.74 22.32 35.82 38.89 40.94 41.46 35.19 42.66 42.85 42.69 41.73 39.99 39.69 38.53 37.59 35.92 34.72 34.76 34.92 34.61 35.39 35.61 35.58 35.75 36.04 34.94 34.23 33.68 32.67 33.51 32.92 33.91 33.55 32.92 32.02 31.90 31.56 31.58 31.42 30.95
33.48 34.02 31.12 28.36 26.14 29.62 36.96 40.36 42.57 32.12 33.08 41.66 43.18 43.82 41.04 39.77 40.21 37.82 38.04 36.22 36.10 36.07 36.21 37.20 36.91 35.91 35.83 36.32 35.75 34.38 34.14 33.04 33.69 35.06 34.87 34.45 34.11 32.81 31.95 31.19 31.37 30.74 29.77 28.79
30.53 28.77 29.19 30.75 28.30 22.35 39.40 40.22 36.21 39.70 40.93 42.53 42.87 42.59 40.25 40.05 38.22 37.18 37.30 36.98 36.84 35.95 35.99 36.19 34.99 33.97 37.04 37.34 36.24 33.74 33.56 33.11 34.25 34.08 33.33 32.14 31.61 32.37 31.98 30.11 28.58 27.64 26.89 24.92
31.34 32.52 31.19 31.55 30.72 37.88 39.42 40.75 41.00 41.72 40.27 39.49 41.76 41.74 40.82 39.26 36.20 35.35 35.03 36.27 36.77 36.77 35.70 35.32 34.84 35.72 36.58 35.66 35.61 33.30 31.88 32.34 31.31 30.61 30.83 30.98 31.20 29.96 28.48 26.27 25.46 25.23 25.85 25.00
36.15 38.75 35.58 36.11 40.31 39.62 41.14 40.20 40.65 39.65 38.16 38.12 39.84 42.10 42.71 39.58 38.26 36.29 35.09 34.16 34.18 34.17 33.06 33.62 32.90 30.89 29.57 30.64 30.90 30.47 30.82 31.48 31.11 30.13 29.70 28.58 26.98 26.31 26.30 26.86 26.18 24.80 23.89 22.47
37.86 37.99 37.13 37.49 40.33 39.03 39.52 40.54 39.44 38.37 38.09 37.73 38.11 40.94 42.51 40.36 38.05 37.55 36.67 35.36 34.97 34.52 34.02 33.42 31.66 30.07 29.29 30.27 30.27 31.34 31.85 31.72 29.84 28.58 26.61 26.59 26.44 25.29 24.22 24.43 23.39 23.02 23.25 23.77
38.04 37.40 36.69 36.57 42.65 41.24 39.14 39.08 39.33 37.57 36.84 37.26 39.08 38.86 40.69 38.92 37.65 37.88 37.39 37.51 35.77 33.77 32.06 30.57 29.68 29.01 29.18 30.01 30.40 31.13 31.85 31.05 28.46 25.86 25.61 25.13 24.21 23.68 22.93 22.13 22.18 30.31 29.91 30.25
MSLP
1011.02 1011.62 1012.01 1012.35 1012.58 1012.54 1012.73 1012.66 1012.33 1011.51 1011.11 1011.02 1010.56 1010.21 1009.56 1008.72 1008.31 1007.71 1007.67 1007.52 1006.75 1006.33 1006.03 1006.03 1005.98 1005.90 1005.84 1005.91 1006.17 1006.37 1006.71 1006.97 1007.53 1008.03 1008.97 1009.70 1010.12 1010.62 1011.14 1011.38 1011.10 1011.98 1012.85 1013.43
1011.65 1011.72 1011.95 1012.29 1012.55 1012.79 1012.86 1012.73 1012.32 1011.53 1011.16 1011.19 1010.81 1009.71 1009.17 1007.88 1007.26 1006.65 1006.52 1006.49 1005.98 1005.88 1005.76 1005.56 1005.53 1005.64 1005.82 1005.51 1005.75 1006.05 1006.23 1006.20 1006.63 1007.37 1007.90 1008.68 1009.51 1010.36 1010.73 1011.22 1011.01 1011.56 1012.49 1013.20
1011.31 1011.67 1011.71 1012.22 1012.61 1012.64 1012.66 1012.64 1012.62 1012.74 1012.16 1012.00 1011.61 1009.62 1007.99 1006.35 1005.52 1005.41 1005.18 1005.15 1005.44 1005.35 1005.37 1005.27 1005.34 1005.25 1005.48 1005.66 1005.55 1005.72 1006.00 1006.18 1006.15 1006.47 1007.70 1008.75 1009.84 1010.71 1011.22 1011.65 1011.34 1011.95 1012.30 1013.13
1011.34 1011.33 1011.62 1011.93 1012.46 1012.59 1012.83 1012.92 1013.09 1013.39 1013.67 1013.98 1013.41 1011.78 1008.92 1006.38 1005.41 1004.97 1004.53 1004.57 1004.60 1004.66 1004.61 1004.70 1004.93 1004.93 1005.04 1005.16 1005.10 1005.22 1005.47 1005.82 1006.00 1006.31 1006.97 1007.71 1008.61 1010.15 1010.86 1011.21 1011.56 1012.22 1012.42 1013.23
1011.38 1011.36 1011.72 1012.13 1012.28 1012.62 1013.22 1013.36 1013.83 1014.30 1014.87 1015.08 1014.03 1013.42 1008.67 1007.14 1005.95 1004.92 1004.48 1003.98 1003.83 1003.79 1003.92 1004.15 1004.37 1004.38 1004.46 1004.53 1004.66 1004.82 1005.03 1005.11 1005.41 1005.87 1006.38 1007.17 1008.43 1009.71 1010.73 1011.57 1011.91 1012.59 1013.01 1013.32
1011.43 1011.55 1012.03 1012.24 1012.49 1012.78 1013.45 1014.04 1014.66 1015.20 1015.86 1015.88 1013.73 1013.10 1009.54 1007.12 1005.51 1004.80 1004.18 1003.78 1003.41 1003.73 1003.76 1003.88 1003.98 1004.31 1004.56 1004.66 1004.75 1004.72 1004.74 1004.83 1004.87 1005.05 1005.78 1006.62 1007.74 1009.27 1010.86 1012.07 1012.22 1012.85 1013.29 1013.75
1012.02 1012.27 1012.36 1012.31 1012.82 1013.28 1013.77 1014.67 1016.19 1016.57 1016.90 1015.60 1013.78 1013.00 1008.96 1006.81 1005.34 1004.56 1004.14 1003.80 1003.60 1003.87 1003.91 1003.98 1004.31 1004.69 1004.65 1004.78 1004.80 1004.97 1004.88 1004.78 1004.73 1004.91 1005.41 1006.43 1007.55 1008.47 1009.72 1011.18 1012.13 1012.85 1013.43 1013.85
1012.42 1013.09 1012.56 1012.38 1012.76 1013.32 1014.19 1014.99 1016.15 1016.87 1016.98 1015.98 1013.72 1011.65 1007.91 1005.72 1004.66 1004.08 1003.70 1003.52 1003.82 1003.92 1003.98 1003.98 1004.25 1004.53 1004.55 1004.60 1004.76 1004.71 1004.83 1004.52 1004.62 1004.92 1005.34 1006.09 1007.25 1008.54 1009.85 1010.98 1011.98 1012.46 1012.99 1013.70
1012.20 1012.37 1012.00 1012.22 1012.58 1013.30 1014.26 1015.07 1015.82 1016.84 1017.30 1016.59 1013.79 1010.45 1007.44 1005.48 1005.12 1004.73 1004.49 1004.48 1004.77 1004.35 1004.35 1004.32 1004.29 1004.23 1004.30 1004.35 1004.41 1004.40 1004.16 1004.09 1004.21 1004.92 1005.36 1006.24 1007.27 1008.34 1009.75 1011.05 1012.04 1012.78 1013.32 1013.84
1011.46 1012.20 1012.43 1012.48 1012.78 1013.34 1013.95 1014.58 1016.09 1017.47 1017.75 1016.83 1013.86 1011.27 1008.22 1006.49 1005.96 1005.54 1005.52 1005.45 1005.42 1005.13 1004.97 1004.64 1004.42 1004.18 1004.01 1004.07 1004.05 1003.63 1003.36 1003.52 1004.03 1004.62 1005.32 1006.33 1007.63 1008.89 1009.87 1011.04 1012.00 1012.71 1013.41 1014.04
1010.91 1011.84 1013.53 1013.20 1013.28 1013.19 1013.88 1014.53 1015.63 1016.59 1017.25 1016.90 1014.93 1010.97 1007.25 1006.42 1005.96 1005.87 1005.94 1005.87 1005.71 1005.33 1004.96 1004.48 1004.23 1004.00 1003.97 1003.91 1003.75 1003.41 1003.16 1003.39 1004.23 1004.86 1005.75 1006.74 1008.21 1009.15 1010.06 1011.02 1011.75 1012.59 1013.58 1014.10
1011.00 1012.06 1013.20 1013.30 1013.08 1013.17 1013.83 1014.47 1015.21 1016.48 1016.92 1016.51 1015.36 1011.17 1007.04 1006.03 1006.03 1005.91 1005.51 1005.44 1005.32 1005.02 1004.35 1003.63 1003.97 1003.76 1003.77 1003.63 1003.58 1003.54 1003.67 1003.83 1004.57 1005.32 1006.27 1007.55 1008.37 1009.28 1010.07 1010.90 1011.74 1012.64 1013.55 1014.35
1010.99 1012.22 1013.25 1013.53 1013.61 1013.41 1013.83 1014.04 1014.74 1015.55 1016.12 1015.61 1014.76 1010.39 1006.81 1006.39 1006.00 1005.91 1006.01 1005.98 1005.37 1004.85 1004.58 1004.21 1003.99 1003.89 1004.00 1003.77 1003.75 1003.76 1004.28 1004.65 1005.02 1005.74 1006.74 1007.99 1008.70 1009.59 1010.51 1011.21 1012.07 1012.97 1013.70 1014.55
1010.91 1012.21 1013.01 1013.32 1012.97 1012.91 1013.38 1013.49 1014.05 1014.70 1015.35 1013.70 1011.75 1009.63 1007.26 1007.10 1006.53 1006.06 1005.87 1005.75 1005.16 1004.92 1004.80 1004.98 1004.51 1004.14 1004.24 1004.41 1004.40 1004.57 1004.82 1005.15 1005.58 1006.34 1007.31 1008.22 1009.04 1010.17 1010.68 1011.57 1012.46 1013.23 1013.99 1015.01
1011.44 1012.57 1013.02 1012.96 1012.81 1012.79 1012.78 1012.88 1013.03 1013.23 1012.64 1012.68 1009.21 1009.22 1007.31 1007.07 1006.72 1005.96 1005.51 1005.36 1005.02 1004.83 1004.98 1005.11 1004.99 1004.84 1004.91 1004.85 1005.54 1005.77 1005.85 1006.01 1006.14 1007.02 1007.90 1008.89 1009.89 1010.70 1011.27 1012.26 1013.11 1013.72 1014.58 1015.64
1011.96 1012.90 1013.09 1012.92 1012.05 1011.89 1011.76 1011.43 1011.51 1011.42 1010.92 1010.55 1009.42 1007.91 1007.58 1006.61 1006.03 1005.67 1005.90 1005.56 1005.25 1004.90 1004.88 1005.17 1005.38 1005.34 1005.61 1005.82 1006.32 1006.99 1006.95 1007.29 1007.25 1007.74 1008.56 1009.71 1010.40 1011.18 1012.14 1013.00 1013.87 1014.53 1015.28 1016.27
1012.33 1013.00 1013.44 1012.82 1011.55 1011.00 1010.38 1008.96 1009.15 1009.12 1008.87 1008.44 1008.27 1007.21 1006.76 1006.28 1006.09 1006.39 1006.33 1006.09 1005.62 1005.05 1004.82 1005.44 1006.22 1006.57 1006.74 1006.90 1007.13 1007.75 1008.01 1008.02 1008.46 1009.06 1009.72 1010.62 1011.36 1012.31 1013.29 1014.09 1014.97 1015.43 1016.11 1016.88
1012.07 1012.83 1013.06 1012.48 1011.36 1010.17 1008.24 1006.88 1006.99 1007.54 1007.45 1007.43 1007.17 1006.90 1006.61 1006.53 1006.76 1007.06 1007.09 1006.80 1006.58 1006.24 1005.59 1006.43 1007.05 1007.38 1007.77 1008.12 1008.46 1008.87 1009.30 1009.49 1010.01 1010.68 1011.27 1012.02 1012.72 1013.79 1014.64 1015.16 1015.73 1016.17 1017.09 1017.68
1011.65 1012.41 1012.56 1012.34 1011.25 1009.45 1007.61 1006.85 1006.69 1006.94 1006.93 1006.76 1006.73 1006.59 1006.53 1006.68 1006.85 1007.57 1008.15 1008.23 1008.08 1007.93 1007.91 1007.80 1007.93 1008.32 1008.70 1009.07 1009.67 1010.21 1010.88 1011.09 1011.71 1012.50 1013.18 1014.22 1014.00 1015.28 1015.85 1016.27 1016.65 1017.18 1017.48 1018.11
1011.72 1012.11 1012.66 1012.16 1011.30 1009.50 1007.30 1006.47 1006.22 1006.54 1006.41 1006.05 1006.31 1006.81 1006.92 1006.86 1007.25 1008.45 1009.15 1009.26 1009.26 1009.14 1009.11 1009.19 1009.18 1009.24 1009.76 1010.55 1010.90 1011.51 1012.36 1012.89 1013.57 1014.16 1014.58 1015.29 1015.99 1016.46 1016.55 1017.14 1017.54 1018.38 1018.37 1018.32
1011.56 1011.87 1011.84 1011.89 1011.00 1009.06 1006.93 1006.31 1006.52 1006.43 1006.23 1005.74 1006.20 1006.51 1007.11 1007.63 1008.40 1009.34 1009.79 1010.06 1010.09 1010.11 1010.16 1010.20 1010.44 1010.55 1010.96 1011.41 1011.74 1012.48 1013.08 1014.09 1014.91 1015.70 1016.03 1016.68 1016.71 1016.72 1017.39 1017.91 1018.40 1018.25 1018.48 1018.63
1010.59 1011.01 1010.94 1010.98 1010.36 1008.55 1005.99 1006.51 1006.52 1005.59 1005.28 1005.54 1006.12 1006.59 1007.43 1007.96 1008.75 1009.66 1010.20 1010.46 1010.55 1010.71 1011.21 1011.22 1011.49 1011.92 1012.26 1012.46 1012.60 1013.47 1014.26 1014.96 1015.41 1016.34 1017.24 1017.27 1017.54 1017.81 1018.15 1018.45 1018.63 1018.74 1018.89 1019.30
1009.57 1009.07 1009.06 1009.07 1008.10 1006.44 1005.87 1005.81 1005.75 1005.61 1005.81 1006.01 1006.21 1006.75 1007.48 1008.30 1008.90 1009.73 1010.46 1010.73 1010.99 1011.37 1011.96 1012.34 1012.60 1012.92 1013.47 1013.88 1013.95 1014.75 1015.52 1015.92 1016.63 1017.29 1017.28 1017.24 1017.95 1018.33 1018.55 1018.66 1018.95 1019.18 1019.41 1019.75
1008.18 1007.78 1007.93 1008.04 1006.36 1006.34 1005.96 1005.99 1006.04 1006.04 1006.27 1006.39 1006.49 1006.86 1007.67 1008.39 1009.04 1009.75 1010.57 1011.06 1011.31 1011.83 1012.37 1012.76 1013.07 1013.64 1014.23 1014.68 1015.14 1015.50 1015.98 1016.27 1016.44 1016.74 1017.58 1018.26 1018.56 1018.86 1018.92 1018.99 1019.30 1019.76 1020.11 1020.52
1007.88 1007.37 1006.97 1006.75 1006.03 1005.90 1005.91 1006.13 1006.27 1006.44 1006.69 1006.84 1006.87 1007.07 1007.61 1008.51 1009.33 1009.87 1010.61 1011.19 1011.79 1012.32 1012.95 1013.40 1013.77 1014.28 1014.79 1015.21 1015.61 1015.93 1016.10 1016.25 1017.03 1017.83 1018.31 1018.63 1018.86 1019.17 1019.58 1019.88 1020.10 1020.44 1020.60 1020.61
1007.12 1006.55 1006.46 1005.95 1005.56 1005.75 1006.02 1006.26 1006.42 1006.83 1007.05 1007.16 1007.19 1007.56 1008.16 1008.64 1009.27 1010.12 1010.80 1011.35 1011.92 1012.43 1013.13 1013.77 1014.39 1014.89 1015.38 1015.68 1016.03 1016.34 1016.57 1016.95 1017.57 1018.30 1018.78 1019.14 1019.51 1019.88 1020.19 1020.46 1020.69 1020.52 1020.45 1020.35
Wind_Speed
4 4 6 9 6 5 4 3 5 4 6 5 8 9 12 9 12 17 13 11 15 14 9 7 8 9 10 9 9 10 8 10 8 10 9 7 8 8 5 5 12 11 10 12
4 4 5 6 9 9 10 7 4 6 3 5 10 19 16 19 16 19 20 14 16 15 11 10 9 8 8 9 9 8 8 12 12 10 10 6 7 2 3 4 8 12 11 10
6 4 7 5 5 4 2 2 2 4 6 4 9 11 8 8 16 21 20 18 15 17 13 11 10 9 8 8 8 8 8 9 7 8 8 5 6 3 3 2 5 6 11 9
4 3 2 5 4 4 1 5 1 3 5 4 5 9 7 9 8 5 10 13 17 15 9 10 10 9 9 9 8 9 8 9 8 9 9 14 10 9 4 4 4 6 9 11
6 5 5 3 3 4 3 5 5 4 3 5 3 2 9 6 4 5 3 9 11 11 12 12 10 10 9 8 8 8 7 9 9 11 12 11 9 5 5 5 11 9 6 10
4 5 4 5 2 4 6 3 3 3 3 3 7 5 6 2 5 2 4 9 5 6 5 4 2 2 4 2 4 6 8 8 8 14 13 14 16 14 11 7 8 7 6 7
3 3 1 2 4 3 4 5 2 1 1 8 2 4 9 10 14 8 9 7 6 6 5 4 7 5 4 5 6 5 7 8 8 10 13 13 15 16 17 14 9 11 7 7
6 2 9 5 5 6 5 5 5 6 3 4 4 8 8 8 10 9 6 2 5 2 1 3 6 3 2 4 5 7 9 9 7 9 13 12 15 10 9 9 8 8 8 8
5 3 6 7 4 7 4 4 5 2 3 4 6 8 10 8 7 7 8 6 8 10 6 6 4 3 2 5 7 8 10 9 8 11 11 13 13 14 12 11 9 7 9 9
2 5 7 5 4 4 5 4 3 3 0 4 6 6 9 5 7 7 8 7 8 8 10 4 1 1 3 6 7 10 10 10 11 12 13 12 13 12 13 12 11 12 11 11
1 5 2 3 6 8 5 2 2 3 4 4 3 8 6 4 4 1 4 7 8 9 8 9 7 3 4 5 7 8 7 9 9 12 13 14 12 14 13 12 13 13 12 13
2 4 3 7 6 7 4 6 5 6 6 3 2 11 8 13 4 7 17 16 13 10 17 7 7 2 3 5 7 7 3 10 13 14 14 13 14 14 14 13 14 14 14 12
5 3 3 3 3 4 6 8 5 3 3 7 2 9 2 7 16 20 14 15 15 16 8 3 1 1 4 5 3 7 8 13 13 14 15 14 14 14 13 14 14 14 14 13
5 4 5 6 2 4 4 5 7 9 4 5 12 15 22 18 19 22 20 9 5 5 8 5 4 2 4 5 5 8 11 11 14 15 15 15 15 13 14 14 14 14 13 12
4 3 2 5 7 5 7 7 9 10 17 9 21 16 23 21 23 21 18 9 10 10 5 7 6 1 4 8 7 8 9 11 14 15 15 14 14 13 14 13 13 14 13 11
2 1 2 6 9 10 10 12 14 17 20 17 23 27 22 16 15 11 8 9 11 10 6 5 3 6 7 7 9 8 10 10 12 14 15 14 14 14 14 13 13 13 13 11
4 3 1 5 4 3 5 11 16 7 7 10 11 13 13 15 8 7 10 11 10 10 6 6 6 7 8 9 10 10 10 12 13 13 14 13 14 14 13 13 12 12 11 10
5 4 3 4 4 2 4 3 7 9 5 6 9 11 11 12 3 7 9 8 9 12 12 12 10 11 12 12 12 13 12 13 13 13 14 14 15 14 12 12 11 11 9 9
3 4 2 2 3 6 1 2 3 5 5 5 6 9 10 7 5 6 10 11 10 11 10 11 11 12 12 13 13 15 14 14 15 14 15 13 11 12 11 10 9 7 8 6
4 3 1 3 1 3 1 2 2 4 3 7 6 5 8 7 2 3 7 8 11 11 9 10 11 14 14 12 15 16 14 16 14 12 10 10 10 10 11 9 9 2 4 5
4 3 4 6 3 7 8 4 3 3 6 4 4 3 2 2 3 5 7 8 10 9 11 11 11 13 14 14 15 16 15 13 10 9 11 10 10 10 7 6 3 4 4 5
7 6 4 6 3 8 3 3 3 6 2 3 4 5 6 7 9 10 10 8 9 10 11 10 9 10 11 9 13 12 12 10 10 10 9 9 7 7 6 7 4 5 5 6
3 7 6 8 8 6 3 5 1 2 1 2 3 5 8 9 8 10 8 7 10 10 9 8 9 10 10 8 9 11 6 9 10 10 9 9 7 5 5 6 5 4 5 4
5 7 3 3 6 10 11 1 1 2 1 1 1 6 8 8 9 11 10 9 8 8 9 9 10 11 10 9 8 11 10 9 11 12 9 5 6 6 5 4 4 4 4 4
5 3 5 5 8 1 1 1 1 2 2 1 1 4 7 11 9 10 9 10 9 10 10 9 9 9 9 10 10 9 9 10 10 8 5 5 5 5 5 4 4 4 1 3
4 7 4 5 3 2 2 1 1 2 2 1 3 5 8 12 10 10 8 9 10 10 10 10 10 10 10 10 10 8 8 9 9 7 5 4 4 4 4 4 3 6 4 4
Wind_Direction
177 140 184 198 207 246 321 264 245 253 280 257 239 251 260 248 263 268 253 244 248 242 241 234 233 231 216 220 216 205 188 184 156 171 164 173 185 181 180 199 168 159 153 152
106 199 199 187 211 236 265 264 276 294 343 359 307 290 272 256 244 243 243 244 244 247 250 250 244 241 233 216 212 224 200 189 178 166 181 167 164 140 177 193 157 154 149 149
137 141 196 219 286 176 261 256 283 266 335 352 340 284 256 273 238 244 245 240 239 234 232 239 242 240 246 240 224 205 206 199 205 151 119 89 83 56 91 123 131 135 139 139
174 171 177 144 227 149 249 13 48 35 36 260 67 290 292 269 287 232 242 230 232 232 225 225 230 232 227 234 241 221 201 185 197 170 152 159 167 169 183 146 131 122 133 135
210 142 141 154 203 164 199 76 61 41 30 8 284 201 277 255 263 296 277 263 228 223 225 228 217 218 223 220 219 233 231 191 185 186 177 167 148 117 112 124 126 130 123 127
121 98 133 178 80 115 132 83 32 47 69 309 229 184 283 252 221 211 306 343 256 222 205 205 248 304 329 325 245 240 216 226 201 187 176 166 150 143 141 154 142 138 140 134
71 142 127 97 115 121 99 86 28 271 233 234 103 190 250 286 288 275 291 276 146 119 95 110 109 94 56 12 334 274 243 244 220 188 164 154 155 156 158 158 159 151 146 148
144 255 166 193 170 172 160 146 156 210 211 287 308 231 255 232 256 273 221 182 197 153 135 211 137 115 20 342 316 282 251 223 209 169 156 146 141 142 145 152 155 154 148 147
138 280 155 158 138 126 179 201 188 84 309 51 258 299 303 312 35 49 15 17 356 339 296 219 154 113 351 320 307 263 242 226 165 157 138 135 134 139 147 141 141 147 139 140
151 112 153 144 105 242 167 162 78 354 292 275 282 265 240 21 27 31 29 17 347 336 328 287 265 357 318 311 288 279 227 188 159 147 139 127 129 133 136 138 139 143 143 132
148 99 65 115 200 185 187 193 169 120 153 193 294 271 226 156 111 123 24 328 295 289 269 247 219 222 261 295 311 286 197 146 132 125 119 122 128 134 132 138 141 140 135 134
116 104 160 208 216 204 173 196 172 127 273 238 192 261 284 288 100 346 331 329 315 314 284 217 213 224 318 318 309 265 132 105 118 117 119 121 129 130 137 138 140 140 135 131
141 143 155 126 352 155 197 215 189 175 70 216 152 263 272 339 325 326 313 303 292 292 312 255 211 307 330 339 7 101 116 116 120 122 122 123 123 129 131 136 134 133 128 127
126 154 180 176 142 128 197 202 186 183 175 254 231 276 280 291 298 312 304 293 347 20 351 292 252 291 89 51 91 110 115 122 120 118 120 122 121 133 134 132 133 131 121 118
96 165 208 250 247 217 222 209 210 203 232 233 274 273 284 301 299 290 286 250 288 288 258 257 259 10 102 82 61 91 104 116 120 118 118 118 128 131 124 122 125 117 116 115
55 260 33 291 254 229 235 234 220 229 244 252 259 277 277 283 281 305 342 324 310 293 212 234 18 92 76 88 97 103 103 111 112 112 116 124 124 120 120 117 110 107 104 101
134 173 151 270 311 313 273 228 207 209 227 230 250 259 305 311 350 359 337 322 333 325 225 136 87 64 70 82 97 94 104 98 100 109 108 113 110 104 99 98 113 107 101 103
152 185 155 263 309 211 263 254 166 200 239 247 259 282 301 316 159 25 5 5 24 30 82 94 92 84 76 73 75 88 87 89 93 94 96 94 91 96 113 113 107 105 115 121
140 164 242 284 303 285 251 232 194 180 241 212 244 278 311 313 201 69 35 36 51 61 60 83 94 96 93 93 93 88 80 83 82 83 84 87 105 105 101 95 86 98 103 104
151 132 149 340 4 267 231 227 118 136 262 223 198 304 325 339 299 45 33 48 62 70 79 88 95 99 93 89 95 89 85 79 65 68 76 98 97 101 89 82 102 101 128 118
176 185 204 230 258 285 254 201 157 32 249 198 186 168 53 80 48 100 89 83 80 85 85 87 89 96 102 104 104 103 109 109 109 111 98 93 91 99 110 129 129 116 102 89
174 171 187 192 197 262 226 112 224 232 251 157 183 142 124 116 109 105 92 101 112 113 101 99 90 79 85 84 107 108 103 107 105 106 111 112 130 139 130 126 107 91 93 85
208 185 176 180 214 239 314 280 2 15 330 1 164 136 139 141 132 121 119 121 99 115 121 118 106 104 99 95 100 110 106 115 131 145 123 98 103 104 107 102 97 79 72 73
240 189 231 115 253 251 271 142 15 58 128 273 220 137 144 145 142 126 127 123 112 112 111 115 112 107 110 119 120 119 132 127 110 91 98 114 113 101 83 70 70 83 76 77
235 131 201 253 286 109 170 151 208 100 66 19 278 152 142 138 139 141 139 134 130 125 122 123 116 113 113 113 110 119 123 114 114 122 118 102 86 88 85 70 95 99 155 142
199 209 190 226 240 222 257 125 70 116 104 68 132 92 121 135 136 133 133 144 140 130 126 120 119 121 123 123 120 113 113 119 121 113 107 114 104 92 86 97 67 54 92 67